Location: *
(40.9167°N, 9.5000°E)
Time: 01:33:59
(UTC+00:00)

ARGOS Delta rocket - Pass Details

Date: 09 April 2020
Orbit: 634 x 839 km, 96.4° (Epoch: 30 May)

Event Time Altitude Azimuth Distance (km) Brightness Sun altitude
Rises 18:42:37 0° 172° (S) 3,272 7.0 -9.4°
Reaches altitude 10° 18:44:54 10° 173° (S) 2,372 6.3 -9.8°
Maximum altitude 18:50:12 77° 260° (W) 848 4.3 -10.7°
Drops below altitude 10° 18:55:43 10° 347° (NNW) 2,459 7.1 -11.7°
Sets 18:58:07 0° 348° (NNW) 3,402 7.8 -12.1°
